Location: Henham
(51.9333°N, 0.2500°E)
Time: 01:56:44
(UTC+00:00)

Cosmos 2227 Rocket - Pass Details

Date: 23 October 2019
Orbit: 838 x 846 km, 71.0° (Epoch: 16 November)

Event Time Altitude Azimuth Distance (km) Brightness Sun altitude
Rises 20:50:59 0° 330° (NNW) 3,421 6.1 -36.8°
Reaches altitude 10° 20:53:40 10° 339° (NNW) 2,482 5.2 -37.1°
Enters shadow 20:55:47 21° 353° (N) 1,826 4.2 -37.4°
